TimeMST,TemperatureF,Dew PointF,Humidity,Sea Level PressureIn,VisibilityMPH,Wind Direction,Wind SpeedMPH,Gust SpeedMPH,PrecipitationIn,Events,Conditions,WindDirDegrees,DateUTC
12:55 AM,35.1,28.9,78,29.75,10.0,NNW,25.3,33.4,N/A,,Clear,330,2012-11-08 07:55:00
1:55 AM,46.0,34.0,63,29.74,10.0,NNW,19.6,25.3,N/A,,Clear,340,2012-11-08 08:55:00
2:55 AM,48.9,35.1,59,29.76,10.0,NNW,28.8,38.0,N/A,,Clear,340,2012-11-08 09:55:00
3:55 AM,46.9,35.1,63,29.83,10.0,NNW,20.7,28.8,N/A,,Clear,340,2012-11-08 10:55:00
4:55 AM,46.0,34.0,63,29.90,10.0,NNW,11.5,-,N/A,,Clear,330,2012-11-08 11:55:00
5:55 AM,42.1,34.0,73,29.95,10.0,NW,9.2,-,N/A,,Clear,320,2012-11-08 12:55:00
6:55 AM,39.0,32.0,76,30.01,10.0,West,5.8,-,N/A,,Clear,270,2012-11-08 13:55:00
7:55 AM,44.1,34.0,68,30.03,10.0,NW,11.5,-,N/A,,Clear,320,2012-11-08 14:55:00
8:55 AM,46.9,35.1,63,30.05,10.0,North,18.4,-,N/A,,Clear,350,2012-11-08 15:55:00
9:55 AM,48.0,35.1,61,30.06,10.0,NNW,15.0,-,N/A,,Clear,340,2012-11-08 16:55:00
10:55 AM,48.0,35.1,61,30.06,10.0,North,15.0,-,N/A,,Clear,350,2012-11-08 17:55:00
11:55 AM,50.0,34.0,54,30.04,10.0,North,10.4,-,N/A,,Clear,360,2012-11-08 18:55:00
12:55 PM,50.0,33.1,52,30.02,10.0,North,8.1,-,N/A,,Clear,360,2012-11-08 19:55:00
1:55 PM,48.9,32.0,52,29.99,10.0,NE,10.4,-,N/A,,Clear,40,2012-11-08 20:55:00
2:55 PM,48.9,30.9,50,29.98,10.0,NE,11.5,-,N/A,,Clear,50,2012-11-08 21:55:00
3:55 PM,44.1,30.9,60,29.99,10.0,ENE,12.7,-,N/A,,Clear,60,2012-11-08 22:55:00
4:55 PM,39.0,30.0,70,30.00,10.0,NE,10.4,-,N/A,,Clear,50,2012-11-08 23:55:00
5:55 PM,35.1,28.9,78,30.03,10.0,ENE,11.5,-,N/A,,Clear,70,2012-11-09 00:55:00
6:55 PM,32.0,28.0,85,30.02,10.0,East,10.4,-,N/A,,Clear,80,2012-11-09 01:55:00
7:13 PM,33.8,30.2,87,29.99,10.0,ENE,8.1,-,N/A,,Mostly Cloudy,60,2012-11-09 02:13:00
7:23 PM,33.8,30.2,87,30.00,10.0,ENE,8.1,-,N/A,,Overcast,70,2012-11-09 02:23:00
7:55 PM,36.0,30.0,79,30.02,10.0,East,16.1,-,N/A,,Overcast,80,2012-11-09 02:55:00
8:55 PM,36.0,30.0,79,30.02,10.0,East,12.7,-,N/A,,Overcast,90,2012-11-09 03:55:00
9:55 PM,36.0,30.9,82,30.02,10.0,East,10.4,-,N/A,,Overcast,90,2012-11-09 04:55:00
10:55 PM,36.0,30.9,82,30.01,10.0,East,11.5,-,N/A,,Overcast,90,2012-11-09 05:55:00
11:55 PM,36.0,30.9,82,30.00,10.0,East,9.2,-,N/A,,Overcast,100,2012-11-09 06:55:00